TimeCDT,TemperatureF,Dew PointF,Humidity,Sea Level PressureIn,VisibilityMPH,Wind Direction,Wind SpeedMPH,Gust SpeedMPH,PrecipitationIn,Events,Conditions,WindDirDegrees,DateUTC
12:15 AM,69.8,68.7,96,29.94,7.0,Calm,Calm,-,N/A,,Clear,0,2013-08-28 05:15:00
12:35 AM,69.1,68.7,99,29.95,3.0,Calm,Calm,-,N/A,,Clear,0,2013-08-28 05:35:00
12:55 AM,69.1,68.9,99,29.94,1.0,Calm,Calm,-,N/A,,Mist,0,2013-08-28 05:55:00
1:15 AM,67.1,66.9,99,29.94,1.0,Calm,Calm,-,N/A,,Mist,0,2013-08-28 06:15:00
1:35 AM,67.5,67.3,99,29.94,0.8,Calm,Calm,-,N/A,,Mist,0,2013-08-28 06:35:00
1:55 AM,68.2,68.2,100,29.95,0.2,Calm,Calm,-,N/A,Fog,Fog,0,2013-08-28 06:55:00
2:15 AM,66.6,66.6,100,29.94,2.0,Calm,Calm,-,N/A,,Clear,0,2013-08-28 07:15:00
2:35 AM,67.3,67.3,100,29.94,1.0,Calm,Calm,-,N/A,,Mist,0,2013-08-28 07:35:00
2:55 AM,65.3,65.3,100,29.95,3.0,North,3.5,-,N/A,,Clear,360,2013-08-28 07:55:00
3:15 AM,65.3,65.3,100,29.95,5.0,Calm,Calm,-,N/A,,Clear,0,2013-08-28 08:15:00
3:35 AM,65.7,65.7,100,29.95,4.0,Calm,Calm,-,N/A,,Clear,0,2013-08-28 08:35:00
3:55 AM,64.9,64.9,100,29.95,4.0,Calm,Calm,-,N/A,,Clear,0,2013-08-28 08:55:00
4:15 AM,65.3,65.3,100,29.96,5.0,North,3.5,-,N/A,,Clear,10,2013-08-28 09:15:00
4:35 AM,65.3,65.3,100,29.96,4.0,Calm,Calm,-,N/A,,Clear,0,2013-08-28 09:35:00
4:55 AM,65.8,65.8,100,29.96,4.0,Calm,Calm,-,N/A,,Clear,0,2013-08-28 09:55:00
5:15 AM,65.8,65.8,100,29.96,4.0,Calm,Calm,-,N/A,,Clear,0,2013-08-28 10:15:00
5:35 AM,64.4,64.4,100,29.97,1.8,Calm,Calm,-,N/A,,Mist,0,2013-08-28 10:35:00
5:55 AM,64.9,64.9,100,29.98,3.0,Calm,Calm,-,N/A,,Clear,0,2013-08-28 10:55:00
6:15 AM,64.8,64.8,100,29.98,0.5,NNE,3.5,-,N/A,Fog,Fog,30,2013-08-28 11:15:00
6:35 AM,64.2,64.2,100,29.99,0.5,Calm,Calm,-,N/A,Fog,Fog,0,2013-08-28 11:35:00
6:55 AM,64.4,64.4,100,30.00,1.5,Calm,Calm,-,N/A,,Mist,0,2013-08-28 11:55:00
7:15 AM,65.3,65.3,100,30.00,3.0,Calm,Calm,-,N/A,,Clear,0,2013-08-28 12:15:00
7:35 AM,66.9,66.9,100,30.01,5.0,NE,3.5,-,N/A,,Clear,50,2013-08-28 12:35:00
7:55 AM,68.5,68.5,100,30.01,7.0,Calm,Calm,-,N/A,,Clear,0,2013-08-28 12:55:00
8:15 AM,71.6,70.9,98,30.01,10.0,East,4.6,-,N/A,,Clear,90,2013-08-28 13:15:00
8:35 AM,74.3,70.5,88,30.01,10.0,Calm,Calm,-,N/A,,Clear,0,2013-08-28 13:35:00
8:55 AM,75.0,71.1,87,30.01,10.0,East,5.8,-,N/A,,Clear,80,2013-08-28 13:55:00
9:15 AM,75.2,71.6,89,30.01,10.0,East,4.6,-,N/A,,Clear,100,2013-08-28 14:15:00
9:35 AM,76.6,71.6,84,30.02,10.0,East,5.8,-,N/A,,Clear,100,2013-08-28 14:35:00
9:55 AM,80.4,68.9,68,30.02,10.0,ESE,9.2,-,N/A,,Clear,110,2013-08-28 14:55:00
10:15 AM,82.0,63.9,54,30.02,10.0,East,6.9,17.3,N/A,,Clear,90,2013-08-28 15:15:00
10:35 AM,83.5,60.6,46,30.02,10.0,ESE,6.9,-,N/A,,Clear,120,2013-08-28 15:35:00
10:55 AM,84.7,58.8,41,30.03,10.0,ESE,4.6,-,N/A,,Clear,110,2013-08-28 15:55:00
11:15 AM,86.0,57.4,38,30.03,10.0,East,9.2,-,N/A,,Clear,90,2013-08-28 16:15:00
11:35 AM,86.9,56.7,36,30.03,10.0,ESE,5.8,-,N/A,,Clear,110,2013-08-28 16:35:00
11:55 AM,87.3,54.5,33,30.04,10.0,SE,6.9,-,N/A,,Clear,140,2013-08-28 16:55:00
12:15 PM,87.8,53.8,31,30.03,10.0,ESE,6.9,-,N/A,,Clear,120,2013-08-28 17:15:00
12:35 PM,88.7,52.2,29,30.02,10.0,SE,10.4,-,N/A,,Clear,130,2013-08-28 17:35:00
12:55 PM,88.5,55.4,32,30.02,10.0,ESE,4.6,-,N/A,,Clear,120,2013-08-28 17:55:00
1:15 PM,88.5,56.3,33,30.02,10.0,ESE,4.6,-,N/A,,Clear,110,2013-08-28 18:15:00
1:35 PM,89.8,56.1,32,30.02,10.0,South,6.9,-,N/A,,Clear,170,2013-08-28 18:35:00
1:55 PM,88.5,54.7,31,30.02,10.0,SE,3.5,-,N/A,,Clear,130,2013-08-28 18:55:00
2:15 PM,88.5,57.6,35,30.02,10.0,East,8.1,-,N/A,,Clear,100,2013-08-28 19:15:00
2:35 PM,88.3,55.8,33,30.02,10.0,East,5.8,-,N/A,,Clear,90,2013-08-28 19:35:00
2:55 PM,88.0,58.8,37,30.03,10.0,SSW,5.8,-,N/A,,Clear,200,2013-08-28 19:55:00
3:15 PM,87.4,57.4,36,30.02,10.0,ESE,4.6,-,N/A,,Clear,120,2013-08-28 20:15:00
3:35 PM,88.2,53.6,31,30.02,10.0,SE,4.6,-,N/A,,Clear,140,2013-08-28 20:35:00
3:55 PM,88.0,52.9,30,30.02,10.0,ESE,5.8,-,N/A,,Clear,120,2013-08-28 20:55:00
4:15 PM,87.6,54.1,32,30.01,10.0,ESE,5.8,-,N/A,,Clear,110,2013-08-28 21:15:00
4:35 PM,87.1,51.8,30,30.02,10.0,ESE,3.5,-,N/A,,Clear,120,2013-08-28 21:35:00
4:55 PM,86.5,54.3,33,30.01,10.0,ESE,5.8,-,N/A,,Clear,110,2013-08-28 21:55:00
5:15 PM,86.0,56.3,36,30.00,10.0,East,8.1,-,N/A,,Clear,100,2013-08-28 22:15:00
5:35 PM,84.7,59.2,42,30.01,10.0,ESE,4.6,-,N/A,,Clear,110,2013-08-28 22:35:00
5:55 PM,84.0,59.2,43,30.02,10.0,East,5.8,-,N/A,,Clear,80,2013-08-28 22:55:00
6:15 PM,82.8,62.1,49,30.01,10.0,East,6.9,-,N/A,,Clear,90,2013-08-28 23:15:00
6:35 PM,82.0,63.1,53,30.01,10.0,East,4.6,-,N/A,,Clear,100,2013-08-28 23:35:00
6:55 PM,81.5,63.9,55,30.01,10.0,East,4.6,-,N/A,,Clear,90,2013-08-28 23:55:00
7:15 PM,81.0,64.4,57,30.00,10.0,SE,4.6,-,N/A,,Clear,140,2013-08-29 00:15:00
7:35 PM,80.8,64.8,58,30.00,10.0,SSE,4.6,-,N/A,,Clear,150,2013-08-29 00:35:00
7:55 PM,79.9,65.8,62,30.01,10.0,SE,4.6,-,N/A,,Clear,140,2013-08-29 00:55:00
8:15 PM,79.0,66.2,65,30.01,10.0,SSE,3.5,-,N/A,,Clear,150,2013-08-29 01:15:00
8:35 PM,78.8,66.7,66,30.02,10.0,SE,3.5,-,N/A,,Clear,130,2013-08-29 01:35:00
8:55 PM,77.9,66.6,68,30.03,10.0,SSE,3.5,-,N/A,,Scattered Clouds,160,2013-08-29 01:55:00
9:15 PM,77.5,67.3,71,30.02,10.0,SSE,4.6,-,N/A,,Mostly Cloudy,150,2013-08-29 02:15:00
9:35 PM,77.0,67.3,72,30.02,10.0,SE,3.5,-,N/A,,Scattered Clouds,140,2013-08-29 02:35:00
9:55 PM,73.9,66.4,77,30.02,10.0,Calm,Calm,-,N/A,,Clear,0,2013-08-29 02:55:00
10:15 PM,73.0,66.7,81,30.03,10.0,Calm,Calm,-,N/A,,Clear,0,2013-08-29 03:15:00
10:35 PM,70.7,66.6,87,30.04,10.0,East,3.5,-,N/A,,Clear,80,2013-08-29 03:35:00
10:55 PM,72.1,66.7,83,30.03,10.0,East,3.5,-,N/A,,Clear,100,2013-08-29 03:55:00
11:15 PM,71.8,67.1,85,30.03,10.0,East,5.8,-,N/A,,Clear,90,2013-08-29 04:15:00
11:35 PM,70.7,66.2,86,30.04,10.0,Calm,Calm,-,N/A,,Clear,0,2013-08-29 04:35:00
11:55 PM,68.4,66.4,93,30.04,10.0,Calm,Calm,-,N/A,,Clear,0,2013-08-29 04:55:00